Location: Rowland
(34.5359°N, 79.2929°W)
Time: 20:11:06
(UTC+00:00)

Transit 2A - Pass Details

Date: 14 October 2022
Orbit: 598 x 959 km, 66.7° (Epoch: 03 December)

Event Time Altitude Azimuth Distance (km) Brightness Sun altitude
Rises 09:46:14 0° 346° (NNW) 3,026 9.0 -20.5°
Reaches altitude 10° 09:48:47 10° 358° (N) 2,163 8.4 -19.9°
Maximum altitude 09:52:59 28° 57° (ENE) 1,388 8.0 -19.1°
Drops below altitude 10° 09:57:32 10° 115° (ESE) 2,357 9.5 -18.1°
Sets 10:00:25 0° 127° (SE) 3,351 10.1 -17.6°
